TimeCST,TemperatureF,Dew PointF,Humidity,Sea Level PressureIn,VisibilityMPH,Wind Direction,Wind SpeedMPH,Gust SpeedMPH,PrecipitationIn,Events,Conditions,WindDirDegrees,DateUTC
12:53 AM,1.0,-2.9,83,30.40,10.0,Calm,Calm,-,N/A,,Clear,0,2013-01-14 06:53:00
1:53 AM,-2.0,-7.1,79,30.40,10.0,Calm,Calm,-,N/A,,Clear,0,2013-01-14 07:53:00
2:53 AM,-2.0,-6.0,83,30.42,10.0,Calm,Calm,-,N/A,,Clear,0,2013-01-14 08:53:00
3:53 AM,-4.0,-9.0,79,30.43,10.0,Calm,Calm,-,N/A,,Clear,0,2013-01-14 09:53:00
4:53 AM,-5.1,-8.0,87,30.43,10.0,Calm,Calm,-,N/A,,Clear,0,2013-01-14 10:53:00
5:53 AM,-5.1,-9.0,83,30.44,10.0,Calm,Calm,-,N/A,,Clear,0,2013-01-14 11:53:00
6:53 AM,-4.0,-8.0,83,30.47,10.0,Calm,Calm,-,N/A,,Clear,0,2013-01-14 12:53:00
7:53 AM,-6.0,-9.9,83,30.50,10.0,Calm,Calm,-,N/A,,Partly Cloudy,0,2013-01-14 13:53:00
8:53 AM,5.0,-0.0,80,30.51,10.0,Calm,Calm,-,N/A,,Overcast,0,2013-01-14 14:53:00
9:53 AM,8.1,1.9,76,30.49,10.0,Calm,Calm,-,N/A,,Scattered Clouds,0,2013-01-14 15:53:00
10:53 AM,14.0,6.1,71,30.46,10.0,WSW,4.6,-,N/A,,Partly Cloudy,250,2013-01-14 16:53:00
11:53 AM,19.9,7.0,57,30.43,10.0,West,10.4,-,N/A,,Clear,260,2013-01-14 17:53:00
12:53 PM,23.0,5.0,46,30.39,10.0,WSW,10.4,16.1,N/A,,Clear,250,2013-01-14 18:53:00
1:53 PM,24.1,7.0,48,30.37,10.0,WSW,13.8,19.6,N/A,,Clear,250,2013-01-14 19:53:00
2:53 PM,24.8,8.6,50,30.22,10.0,WSW,11.5,-,N/A,,Overcast,250,2013-01-14 20:53:00
3:53 PM,23.0,6.8,50,30.22,10.0,West,6.9,-,N/A,,Partly Cloudy,260,2013-01-14 21:53:00
4:53 PM,21.9,8.1,55,30.38,10.0,West,10.4,-,N/A,,Mostly Cloudy,260,2013-01-14 22:53:00
5:53 PM,18.0,8.1,65,30.39,10.0,SW,6.9,-,N/A,,Mostly Cloudy,220,2013-01-14 23:53:00
6:53 PM,19.9,8.1,60,30.40,10.0,SW,6.9,-,N/A,,Overcast,230,2013-01-15 00:53:00
7:53 PM,19.0,9.0,65,30.41,10.0,WSW,3.5,-,N/A,,Overcast,240,2013-01-15 01:53:00
8:53 PM,16.0,9.0,74,30.38,10.0,SW,4.6,-,N/A,,Scattered Clouds,230,2013-01-15 02:53:00
9:53 PM,12.9,7.0,77,30.37,10.0,WSW,3.5,-,N/A,,Clear,250,2013-01-15 03:53:00
10:53 PM,8.1,5.0,87,30.37,10.0,West,3.5,-,N/A,,Partly Cloudy,270,2013-01-15 04:53:00
11:53 PM,12.0,9.0,88,30.35,10.0,SSW,3.5,-,N/A,,Overcast,210,2013-01-15 05:53:00